Location: Moscow
(30.9132°N, 94.8252°W)
Time: 06:51:31
(UTC+00:00)

Cosmos 1300 Rocket - Pass Details

Date: 15 November 2025
Orbit: 594 x 620 km, 82.5° (Epoch: 13 December)

Event Time Altitude Azimuth Distance (km) Brightness Sun altitude
Exits shadow 10:51:06 71° 38° (NE) 631 3.5 -24.7°
Maximum altitude 10:51:25 77° 84° (E) 616 3.5 -24.6°
Drops below altitude 10° 10:55:40 10° 170° (S) 1,920 6.3 -23.7°
Sets 10:57:51 0° 172° (S) 2,816 7.1 -23.3°
